Regional Weather Roundup
Issued by NWS

Home | Current Version | Previous Version | Text Only | Print | Product List | Glossary On
Versions: 1 2 3 4 5 6 7 8 9 10 11 12 13 14 15 16 17 18 19 20 21 22 23 24 25 26 27 28 29 30 31 32 33 34 35 36 37 38 39 40 41 42 43 44 45 46 47 48 49 50
000
ASUS43 KOAX 221110
RWRNE

WEATHER ROUNDUP FOR NEBRASKA
NATIONAL WEATHER SERVICE OMAHA NE
500 AM CST MON DEC 22 2014

NOTES: SATELLITE DATA IS BEING USED TO AUGMENT CLOUD COVER ABOVE
       12000 FEET.
       "FAIR" INDICATES FEW OR NO CLOUDS BELOW 12,000 FEET WITH NO
       SIGNIFICANT WEATHER AND/OR OBSTRUCTIONS TO VISIBILITY.

  * THESE STATIONS DO NOT REPORT WEATHER SUCH AS RAIN...SNOW OR FOG.

NEZ001>004-019>022-054>056-221200-
NEBRASKA PANHANDLE

CITY           SKY/WX    TMP DP  RH WIND       PRES   REMARKS
SCOTTSBLUFF    CLOUDY    36  28  73 NW14      29.68R WCI  27
ALLIANCE       CLOUDY    35  30  82 NW26G37   29.61R WCI  22
CHADRON        CLOUDY    37  29  72 NW28G37   29.62R WCI  25
KIMBALL        LGT SNOW  32  31  96 NW16      29.67S WCI  21
SIDNEY         PTCLDY    35  26  69 NW23G35   29.64S WCI  23
$$

NEZ057>060-069>072-079>082-221200-
SOUTHWEST NEBRASKA

CITY           SKY/WX    TMP DP  RH WIND       PRES   REMARKS
NORTH PLATTE   CLOUDY    34  30  85 NW10      29.56R WCI  26
IMPERIAL       PTCLDY    38  27  64 NW17      29.60R WCI  28
LEXINGTON      CLOUDY    36  33  88 NW15      29.53R WCI  27
MCCOOK         CLOUDY    39  32  76 NW13      29.57R WCI  31
OGALLALA       PTCLDY    37  30  77 NW20      29.60R WCI  26
$$

NEZ005>010-023>029-035>040-094-221200-
NORTH CENTRAL NEBRASKA

CITY           SKY/WX    TMP DP  RH WIND       PRES   REMARKS
VALENTINE      CLOUDY    37  34  89 NW13      29.50S WCI  29
AINSWORTH      DRIZZLE   36  35  96 NW13G21   29.49S WCI  28
BROKEN BOW     CLOUDY    39  34  82 NW10      29.51S WCI  32
O`NEILL        CLOUDY    38  37  97 W9        29.46S WCI  31
THEDFORD       CLOUDY    38  35  89 NW15G21   29.54R WCI  30
$$

NEZ041-046>049-061>064-073>077-083>087-221200-
SOUTH CENTRAL NEBRASKA

CITY           SKY/WX    TMP DP  RH WIND       PRES   REMARKS
GRAND ISLAND   CLOUDY    41  38  89 SW12      29.51R
AURORA         CLOUDY    42  42 100 SW8       29.50R FOG
HASTINGS       CLOUDY    41  38  89 SW6       29.50R FOG
HEBRON         CLOUDY    43  41  93 S9        29.50F FOG
HOLDREGE       PTCLDY    35  33  92 NW10      29.51S WCI  27
KEARNEY *      CLOUDY    34  32  93 W8        29.51S WCI  27
YORK           CLOUDY    41  41 100 S9        29.50S FOG
$$

NEZ011>018-030>034-042>045-221200-
NORTHEAST NEBRASKA

CITY           SKY/WX    TMP DP  RH WIND       PRES   REMARKS
NORFOLK        LGT RAIN  43  41  93 S10       29.47F FOG
ALBION         CLOUDY    39  37  91 SW3       29.48F FOG
BLAIR          LGT RAIN  43  41  93 S12G17    29.54S
COLUMBUS *     CLOUDY    43  39  87 S7        29.51S
FREMONT        DRIZZLE   44  43  96 S12       29.52F
TEKAMAH        LGT RAIN  44  42  93 S15       29.53F FOG
WAYNE          DRIZZLE   42  41  98 S12       29.49F
$$

NEZ050>053-065>068-078-088>093-221200-
SOUTHEAST NEBRASKA

CITY           SKY/WX    TMP DP  RH WIND       PRES   REMARKS
LINCOLN        LGT RAIN  43  42  97 S13       29.53F FOG
OMAHA EPPLEY   LGT RAIN  43  41  93 S16       29.57F
BEATRICE       RAIN      42  41  97 S9        29.53F
FALLS CITY     LGT RAIN  42  40  92 SE13      29.58F
NEBRASKA CITY  LGT RAIN  42  42 100 S12       29.57F
PLATTSMOUTH    DRIZZLE   41  40  94 SE10      29.56F
$$

NEZ044-045-051>053-067-221200-
OMAHA AREA

CITY           SKY/WX    TMP DP  RH WIND       PRES   REMARKS
OMAHA EPPLEY   LGT RAIN  43  41  93 S16       29.57F
BLAIR          LGT RAIN  43  41  93 S12G17    29.54S
FREMONT        DRIZZLE   44  43  96 S12       29.52F
MILLARD        DRIZZLE   43  41  93 SE9       29.55F
OFFUTT AFB     LGT RAIN  42  41  96 SE10      29.56F FOG
PLATTSMOUTH    DRIZZLE   41  40  94 SE10      29.56F
WAHOO          DRIZZLE   43  40  91 S14       29.53F
$$



USA.gov is the U.S. government's official web portal to all federal, state and local government web resources and services.